| time (UTC) | temp C | wind direction | speed KPH | gust KPH | rain 1hr cm | rain 24hr cm | rain mn cm | humidity % | barometer mb |
| 20260510000030 | 17 | 192 | 9.7 | 22.5 | 0.00 | 0.00 | 0.00 | 59 | 1006.0 |
| 20260509235508 | 17 | 192 | 11.3 | 19.3 | 0.00 | 0.00 | 0.00 | 59 | 1006.1 |
| 20260509235008 | 17 | 198 | 8.0 | 16.1 | 0.00 | 0.00 | 0.00 | 58 | 1006.0 |
| 20260509234536 | 18 | 189 | 8.0 | 12.9 | 0.00 | 0.00 | 0.00 | 58 | 1006.0 |
| 20260509233511 | 18 | 199 | 9.7 | 25.7 | 0.00 | 0.00 | 0.00 | 55 | 1005.9 |
| 20260509231007 | 18 | 215 | 9.7 | 22.5 | 0.00 | 0.00 | 0.00 | 55 | 1005.8 |
| 20260509230507 | 18 | 226 | 11.3 | 20.9 | 0.00 | 0.00 | 0.00 | 55 | 1005.9 |
| 20260509230022 | 18 | 181 | 8.0 | 16.1 | 0.00 | 0.00 | 0.00 | 55 | 1005.9 |
| 20260509225508 | 18 | 188 | 6.4 | 27.4 | 0.00 | 0.00 | 0.00 | 54 | 1005.9 |
| 20260509225009 | 18 | 197 | 4.8 | 30.6 | 0.00 | 0.00 | 0.00 | 55 | 1005.9 |
| 20260509224533 | 18 | 184 | 11.3 | 30.6 | 0.00 | 0.00 | 0.00 | 54 | 1005.8 |
| 20260509224009 | 18 | 190 | 11.3 | 25.7 | 0.00 | 0.00 | 0.00 | 55 | 1005.6 |
| 20260509223511 | 18 | 193 | 4.8 | 19.3 | 0.00 | 0.00 | 0.00 | 56 | 1005.7 |
| 20260509223022 | 18 | 256 | 8.0 | 25.7 | 0.00 | 0.00 | 0.00 | 56 | 1005.6 |
| 20260509222509 | 18 | 180 | 14.5 | 25.7 | 0.00 | 0.00 | 0.00 | 55 | 1005.5 |
| 20260509222007 | 18 | 207 | 8.0 | 19.3 | 0.00 | 0.00 | 0.00 | 55 | 1005.7 |
| 20260509221525 | 18 | 209 | 8.0 | 30.6 | 0.00 | 0.00 | 0.00 | 56 | 1005.7 |
| 20260509221009 | 18 | 220 | 9.7 | 30.6 | 0.00 | 0.00 | 0.00 | 56 | 1005.7 |
| 20260509220512 | 18 | 175 | 14.5 | 29.0 | 0.00 | 0.00 | 0.00 | 56 | 1005.7 |
| 20260509220024 | 18 | 230 | 12.9 | 24.1 | 0.00 | 0.00 | 0.00 | 56 | 1005.7 |
| 20260509215509 | 18 | 195 | 9.7 | 29.0 | 0.00 | 0.00 | 0.00 | 56 | 1005.8 |
| 20260509215009 | 18 | 173 | 11.3 | 29.0 | 0.00 | 0.00 | 0.00 | 56 | 1005.8 |
| 20260509214524 | 18 | 162 | 12.9 | 27.4 | 0.00 | 0.00 | 0.00 | 57 | 1005.8 |
| 20260509214010 | 18 | 182 | 14.5 | 25.7 | 0.00 | 0.00 | 0.00 | 58 | 1005.6 |
| 20260509213508 | 18 | 218 | 11.3 | 29.0 | 0.00 | 0.00 | 0.00 | 58 | 1005.8 |
| 20260509213024 | 18 | 199 | 16.1 | 30.6 | 0.00 | 0.00 | 0.00 | 57 | 1006.0 |
| 20260509212508 | 18 | 192 | 11.3 | 30.6 | 0.00 | 0.00 | 0.00 | 58 | 1006.0 |
| 20260509212007 | 18 | 236 | 9.7 | 29.0 | 0.00 | 0.00 | 0.00 | 59 | 1006.0 |
| 20260509211525 | 18 | 188 | 11.3 | 29.0 | 0.00 | 0.00 | 0.00 | 57 | 1006.0 |
| 20260509211009 | 18 | 212 | 6.4 | 29.0 | 0.00 | 0.00 | 0.00 | 59 | 1006.1 |
| 20260509210507 | 18 | 195 | 12.9 | 25.7 | 0.00 | 0.00 | 0.00 | 58 | 1006.1 |
| 20260509210023 | 18 | 198 | 12.9 | 25.7 | 0.00 | 0.00 | 0.00 | 57 | 1006.4 |
| 20260509205507 | 18 | 232 | 11.3 | 32.2 | 0.00 | 0.00 | 0.00 | 59 | 1006.6 |
| 20260509205007 | 18 | 237 | 11.3 | 32.2 | 0.00 | 0.00 | 0.00 | 59 | 1006.6 |
| 20260509204522 | 17 | 183 | 12.9 | 25.7 | 0.00 | 0.00 | 0.00 | 61 | 1006.6 |
| 20260509203503 | 17 | 208 | 11.3 | 25.7 | 0.00 | 0.00 | 0.00 | 61 | 1006.7 |
| 20260509203007 | 17 | 180 | 8.0 | 24.1 | 0.00 | 0.00 | 0.00 | 60 | 1006.8 |
| 20260509202503 | 18 | 180 | 8.0 | 24.1 | 0.00 | 0.00 | 0.00 | 58 | 1006.6 |
| 20260509202006 | 18 | 275 | 8.0 | 22.5 | 0.00 | 0.00 | 0.00 | 60 | 1006.8 |
| 20260509201505 | 18 | 243 | 8.0 | 22.5 | 0.00 | 0.00 | 0.00 | 61 | 1006.9 |
| 20260509201003 | 18 | 221 | 8.0 | 17.7 | 0.00 | 0.00 | 0.00 | 62 | 1007.0 |
| 20260509200503 | 18 | 228 | 3.2 | 17.7 | 0.00 | 0.00 | 0.00 | 61 | 1007.0 |
| 20260509195504 | 17 | 239 | 14.5 | 25.7 | 0.00 | 0.00 | 0.00 | 64 | 1007.2 |
| 20260509195002 | 17 | 275 | 8.0 | 22.5 | 0.00 | 0.00 | 0.00 | 64 | 1007.3 |
| 20260509194504 | 17 | 200 | 12.9 | 30.6 | 0.00 | 0.00 | 0.00 | 65 | 1007.2 |
| 20260509194003 | 17 | 209 | 14.5 | 30.6 | 0.00 | 0.00 | 0.00 | 65 | 1007.2 |
| 20260509193504 | 16 | 299 | 11.3 | 25.7 | 0.00 | 0.00 | 0.00 | 67 | 1007.2 |
| 20260509193008 | 16 | 222 | 6.4 | 25.7 | 0.00 | 0.00 | 0.00 | 68 | 1007.3 |
| 20260509192502 | 16 | 181 | 9.7 | 24.1 | 0.00 | 0.00 | 0.00 | 67 | 1007.2 |
| 20260509192002 | 16 | 280 | 8.0 | 20.9 | 0.00 | 0.00 | 0.00 | 68 | 1007.3 |
| 20260509191504 | 16 | 217 | 8.0 | 20.9 | 0.00 | 0.00 | 0.00 | 70 | 1007.4 |
| 20260509191004 | 16 | 237 | 9.7 | 27.4 | 0.00 | 0.00 | 0.00 | 68 | 1007.4 |
| 20260509190503 | 16 | 179 | 16.1 | 27.4 | 0.00 | 0.00 | 0.00 | 67 | 1007.3 |
| 20260509190009 | 16 | 175 | 12.9 | 27.4 | 0.00 | 0.00 | 0.00 | 67 | 1007.3 |
| 20260509185503 | 16 | 104 | 11.3 | 20.9 | 0.00 | 0.00 | 0.00 | 69 | 1007.5 |
| 20260509185003 | 16 | 244 | 9.7 | 20.9 | 0.00 | 0.00 | 0.00 | 70 | 1007.5 |
| 20260509184540 | 16 | 194 | 4.8 | 30.6 | 0.00 | 0.00 | 0.00 | 72 | 1007.5 |
| 20260509184009 | 16 | 215 | 11.3 | 30.6 | 0.00 | 0.00 | 0.00 | 70 | 1007.5 |
| 20260509183508 | 16 | 193 | 14.5 | 29.0 | 0.00 | 0.00 | 0.00 | 70 | 1007.6 |
| 20260509183026 | 16 | 197 | 8.0 | 29.0 | 0.00 | 0.00 | 0.00 | 71 | 1007.6 |
| 20260509182509 | 16 | 210 | 14.5 | 24.1 | 0.00 | 0.00 | 0.00 | 69 | 1007.6 |
| 20260509182010 | 16 | 247 | 8.0 | 22.5 | 0.00 | 0.00 | 0.00 | 71 | 1007.6 |
| 20260509181524 | 16 | 284 | 6.4 | 22.5 | 0.00 | 0.00 | 0.00 | 72 | 1007.6 |
| 20260509181011 | 16 | 229 | 11.3 | 20.9 | 0.00 | 0.00 | 0.00 | 73 | 1007.6 |
| 20260509180514 | 15 | 262 | 9.7 | 20.9 | 0.00 | 0.00 | 0.00 | 73 | 1007.7 |
| 20260509180027 | 15 | 252 | 6.4 | 25.7 | 0.00 | 0.00 | 0.00 | 76 | 1007.6 |
| 20260509175507 | 15 | 184 | 8.0 | 25.7 | 0.00 | 0.00 | 0.00 | 75 | 1007.8 |
| 20260509175010 | 15 | 173 | 9.7 | 27.4 | 0.00 | 0.00 | 0.00 | 76 | 1007.7 |
| 20260509173512 | 14 | 197 | 3.2 | 12.9 | 0.00 | 0.00 | 0.00 | 81 | 1007.9 |
| 20260509173026 | 14 | 206 | 3.2 | 11.3 | 0.00 | 0.00 | 0.00 | 80 | 1007.9 |
| 20260509172510 | 14 | 201 | 4.8 | 14.5 | 0.00 | 0.00 | 0.00 | 79 | 1007.9 |
| 20260509172009 | 14 | 136 | 6.4 | 14.5 | 0.00 | 0.00 | 0.00 | 80 | 1007.8 |
| 20260509171522 | 14 | 180 | 3.2 | 12.9 | 0.00 | 0.00 | 0.00 | 83 | 1007.9 |
| 20260509171007 | 13 | 232 | 6.4 | 12.9 | 0.00 | 0.00 | 0.00 | 84 | 1007.9 |
| 20260509170510 | 13 | 190 | 1.6 | 9.7 | 0.00 | 0.00 | 0.00 | 85 | 1007.9 |
| 20260509170044 | 13 | 223 | 1.6 | 8.0 | 0.00 | 0.00 | 0.00 | 85 | 1008.0 |
| 20260509165007 | 13 | 290 | 0.0 | 9.7 | 0.00 | 0.00 | 0.00 | 85 | 1007.9 |
| 20260509164525 | 13 | 263 | 4.8 | 17.7 | 0.00 | 0.00 | 0.00 | 86 | 1007.9 |
| 20260509162008 | 13 | 182 | 12.9 | 19.3 | 0.00 | 0.00 | 0.00 | 88 | 1007.7 |
| 20260509161522 | 13 | 161 | 4.8 | 17.7 | 0.00 | 0.00 | 0.00 | 90 | 1007.8 |
| 20260509161011 | 12 | 254 | 6.4 | 17.7 | 0.00 | 0.00 | 0.00 | 92 | 1007.9 |
| 20260509160508 | 12 | 271 | 6.4 | 14.5 | 0.00 | 0.00 | 0.00 | 94 | 1007.8 |
| 20260509160024 | 12 | 205 | 8.0 | 14.5 | 0.00 | 0.00 | 0.00 | 94 | 1007.7 |
| 20260509155508 | 12 | 181 | 4.8 | 12.9 | 0.00 | 0.00 | 0.00 | 95 | 1007.8 |
| 20260509155009 | 11 | 201 | 4.8 | 12.9 | 0.00 | 0.00 | 0.00 | 94 | 1007.8 |
| 20260509154524 | 11 | 249 | 3.2 | 12.9 | 0.00 | 0.00 | 0.00 | 95 | 1007.8 |
| 20260509153509 | 11 | 183 | 3.2 | 14.5 | 0.00 | 0.00 | 0.00 | 95 | 1007.8 |
| 20260509151008 | 11 | 242 | 6.4 | 17.7 | 0.00 | 0.00 | 0.00 | 95 | 1007.7 |
| 20260509150510 | 11 | 187 | 6.4 | 16.1 | 0.00 | 0.00 | 0.00 | 95 | 1007.7 |
| 20260509150026 | 11 | 195 | 6.4 | 16.1 | 0.00 | 0.00 | 0.00 | 95 | 1007.7 |
| 20260509145506 | 10 | 211 | 8.0 | 16.1 | 0.00 | 0.00 | 0.00 | 95 | 1007.7 |
| 20260509145009 | 10 | 193 | 4.8 | 12.9 | 0.00 | 0.00 | 0.00 | 95 | 1007.8 |
| 20260509144527 | 10 | 200 | 6.4 | 12.9 | 0.00 | 0.00 | 0.00 | 95 | 1007.8 |
| 20260509144009 | 10 | 217 | 3.2 | 14.5 | 0.00 | 0.00 | 0.00 | 95 | 1007.8 |
| 20260509143513 | 10 | 182 | 4.8 | 14.5 | 0.00 | 0.00 | 0.00 | 95 | 1007.8 |
| 20260509143026 | 10 | 200 | 4.8 | 9.7 | 0.00 | 0.00 | 0.00 | 95 | 1007.9 |
| 20260509140027 | 10 | 250 | 3.2 | 12.9 | 0.00 | 0.00 | 0.00 | 95 | 1007.9 |
| 20260509135510 | 10 | 200 | 4.8 | 12.9 | 0.00 | 0.00 | 0.00 | 95 | 1007.9 |
| 20260509135012 | 10 | 184 | 4.8 | 12.9 | 0.00 | 0.00 | 0.00 | 95 | 1007.9 |
| 20260509134530 | 10 | 176 | 4.8 | 12.9 | 0.00 | 0.00 | 0.00 | 95 | 1007.9 |
| 20260509134009 | 10 | 196 | 6.4 | 14.5 | 0.00 | 0.00 | 0.00 | 95 | 1007.9 |
| 20260509133509 | 10 | 195 | 3.2 | 14.5 | 0.00 | 0.00 | 0.00 | 95 | 1008.0 |
| 20260509133027 | 10 | 234 | 3.2 | 14.5 | 0.00 | 0.00 | 0.00 | 95 | 1008.0 |
| 20260509132513 | 10 | 195 | 4.8 | 14.5 | 0.00 | 0.00 | 0.00 | 95 | 1008.0 |
| 20260509132010 | 10 | 186 | 4.8 | 11.3 | 0.00 | 0.00 | 0.00 | 95 | 1007.9 |
| 20260509131528 | 10 | 200 | 6.4 | 12.9 | 0.00 | 0.00 | 0.00 | 95 | 1007.9 |
| 20260509131011 | 10 | 200 | 8.0 | 12.9 | 0.00 | 0.00 | 0.00 | 95 | 1007.9 |
| 20260509130511 | 10 | 187 | 6.4 | 14.5 | 0.00 | 0.00 | 0.00 | 95 | 1008.0 |
| 20260509130026 | 10 | 160 | 8.0 | 14.5 | 0.00 | 0.00 | 0.00 | 94 | 1008.0 |
| 20260509125510 | 10 | 257 | 6.4 | 12.9 | 0.00 | 0.00 | 0.00 | 94 | 1008.0 |
| 20260509125010 | 10 | 182 | 6.4 | 12.9 | 0.00 | 0.00 | 0.00 | 94 | 1008.0 |
| 20260509124525 | 10 | 198 | 8.0 | 16.1 | 0.00 | 0.00 | 0.00 | 94 | 1008.1 |
| 20260509124007 | 10 | 173 | 4.8 | 16.1 | 0.00 | 0.00 | 0.00 | 94 | 1008.0 |
| 20260509123507 | 10 | 175 | 6.4 | 16.1 | 0.00 | 0.00 | 0.00 | 94 | 1008.0 |
| 20260509123022 | 10 | 181 | 6.4 | 16.1 | 0.00 | 0.00 | 0.00 | 94 | 1008.1 |
| 20260509122510 | 10 | 194 | 6.4 | 14.5 | 0.00 | 0.00 | 0.00 | 94 | 1008.1 |
| 20260509122009 | 10 | 205 | 6.4 | 16.1 | 0.00 | 0.00 | 0.00 | 94 | 1008.1 |
| 20260509121528 | 10 | 183 | 6.4 | 16.1 | 0.00 | 0.00 | 0.00 | 94 | 1008.0 |
| 20260509121011 | 10 | 194 | 6.4 | 16.1 | 0.00 | 0.00 | 0.00 | 94 | 1008.0 |
| 20260509120511 | 10 | 202 | 8.0 | 16.1 | 0.00 | 0.00 | 0.00 | 94 | 1008.0 |
| 20260509120026 | 10 | 194 | 4.8 | 12.9 | 0.00 | 0.00 | 0.00 | 94 | 1008.0 |
| 20260509115509 | 10 | 223 | 4.8 | 11.3 | 0.00 | 0.00 | 0.00 | 94 | 1008.0 |
| 20260509115010 | 10 | 204 | 3.2 | 11.3 | 0.00 | 0.00 | 0.00 | 95 | 1008.1 |
| 20260509114528 | 10 | 188 | 4.8 | 9.7 | 0.00 | 0.00 | 0.00 | 95 | 1008.0 |
| 20260509114013 | 10 | 192 | 1.6 | 8.0 | 0.00 | 0.00 | 0.00 | 94 | 1008.1 |
| 20260509113507 | 9 | 210 | 3.2 | 8.0 | 0.00 | 0.00 | 0.00 | 94 | 1008.1 |
| 20260509113027 | 9 | 196 | 3.2 | 8.0 | 0.00 | 0.00 | 0.00 | 95 | 1008.1 |
| 20260509112507 | 9 | 222 | 1.6 | 6.4 | 0.00 | 0.00 | 0.00 | 95 | 1008.1 |
| 20260509112010 | 9 | 200 | 3.2 | 6.4 | 0.00 | 0.00 | 0.00 | 95 | 1008.1 |
| 20260509111524 | 9 | 231 | 1.6 | 8.0 | 0.00 | 0.00 | 0.00 | 95 | 1008.0 |
| 20260509111008 | 9 | 190 | 1.6 | 8.0 | 0.00 | 0.00 | 0.00 | 95 | 1007.9 |
| 20260509110508 | 9 | 206 | 3.2 | 8.0 | 0.00 | 0.00 | 0.00 | 95 | 1007.9 |
| 20260509110026 | 9 | 203 | 3.2 | 9.7 | 0.00 | 0.00 | 0.00 | 95 | 1007.9 |
| 20260509104526 | 9 | 227 | 0.0 | 6.4 | 0.00 | 0.00 | 0.00 | 95 | 1007.8 |
| 20260509103508 | 8 | 213 | 0.0 | 8.0 | 0.00 | 0.00 | 0.00 | 95 | 1007.9 |
| 20260509103026 | 8 | 175 | 0.0 | 8.0 | 0.00 | 0.00 | 0.00 | 95 | 1007.9 |
| 20260509102510 | 8 | 182 | 1.6 | 8.0 | 0.00 | 0.00 | 0.00 | 95 | 1007.8 |
| 20260509102011 | 8 | 211 | 0.0 | 4.8 | 0.00 | 0.00 | 0.00 | 95 | 1007.8 |
| 20260509101530 | 8 | 184 | 0.0 | 3.2 | 0.00 | 0.00 | 0.00 | 95 | 1007.8 |
| 20260509101007 | 8 | 123 | 0.0 | 4.8 | 0.00 | 0.00 | 0.00 | 95 | 1007.8 |
| 20260509100507 | 8 | 111 | 0.0 | 4.8 | 0.00 | 0.00 | 0.00 | 95 | 1007.8 |
| 20260509100026 | 8 | 119 | 0.0 | 1.6 | 0.00 | 0.00 | 0.00 | 95 | 1007.8 |
| 20260509095509 | 8 | 119 | 0.0 | 0.0 | 0.00 | 0.00 | 0.00 | 95 | 1008.0 |
| 20260509095010 | 8 | 119 | 0.0 | 0.0 | 0.00 | 0.00 | 0.00 | 95 | 1007.9 |
| 20260509094532 | 8 | 119 | 0.0 | 0.0 | 0.00 | 0.00 | 0.00 | 95 | 1008.1 |
| 20260509094010 | 8 | 119 | 0.0 | 0.0 | 0.00 | 0.00 | 0.00 | 95 | 1008.2 |
| 20260509093026 | 8 | 119 | 0.0 | 0.0 | 0.00 | 0.00 | 0.00 | 94 | 1008.3 |
| 20260509091530 | 8 | 119 | 0.0 | 3.2 | 0.00 | 0.00 | 0.00 | 94 | 1008.1 |
| 20260509091009 | 8 | 119 | 0.0 | 3.2 | 0.00 | 0.00 | 0.00 | 94 | 1008.2 |
| 20260509090508 | 8 | 128 | 0.0 | 3.2 | 0.00 | 0.00 | 0.00 | 94 | 1008.2 |
| 20260509090040 | 8 | 229 | 1.6 | 3.2 | 0.00 | 0.00 | 0.00 | 94 | 1008.3 |
| 20260509085509 | 8 | 49 | 0.0 | 3.2 | 0.00 | 0.00 | 0.00 | 94 | 1008.5 |
| 20260509085007 | 8 | 50 | 1.6 | 3.2 | 0.00 | 0.00 | 0.00 | 94 | 1008.5 |
| 20260509084526 | 8 | 159 | 0.0 | 0.0 | 0.00 | 0.00 | 0.00 | 94 | 1008.5 |
| 20260509084007 | 8 | 159 | 0.0 | 0.0 | 0.00 | 0.00 | 0.00 | 94 | 1008.6 |
| 20260509083509 | 8 | 159 | 0.0 | 1.6 | 0.00 | 0.00 | 0.00 | 94 | 1008.6 |
| 20260509083025 | 8 | 159 | 0.0 | 1.6 | 0.00 | 0.00 | 0.00 | 94 | 1008.7 |
| 20260509082508 | 8 | 159 | 0.0 | 1.6 | 0.00 | 0.00 | 0.00 | 94 | 1008.7 |
| 20260509082010 | 8 | 159 | 0.0 | 1.6 | 0.00 | 0.00 | 0.00 | 94 | 1008.7 |
| 20260509081531 | 8 | 159 | 0.0 | 0.0 | 0.00 | 0.00 | 0.00 | 94 | 1008.7 |
| 20260509081009 | 8 | 159 | 0.0 | 1.6 | 0.00 | 0.00 | 0.00 | 94 | 1008.7 |
| 20260509080509 | 8 | 159 | 0.0 | 1.6 | 0.00 | 0.00 | 0.00 | 94 | 1008.7 |
| 20260509080026 | 8 | 159 | 0.0 | 1.6 | 0.00 | 0.00 | 0.00 | 94 | 1008.8 |
| 20260509074526 | 8 | 155 | 0.0 | 6.4 | 0.00 | 0.00 | 0.00 | 94 | 1008.7 |
| 20260509074011 | 8 | 146 | 1.6 | 6.4 | 0.00 | 0.00 | 0.00 | 94 | 1008.7 |
| 20260509073507 | 8 | 144 | 1.6 | 3.2 | 0.00 | 0.00 | 0.00 | 94 | 1008.7 |
| 20260509073039 | 8 | 159 | 0.0 | 3.2 | 0.00 | 0.00 | 0.00 | 94 | 1008.8 |
| 20260509072507 | 8 | 158 | 1.6 | 6.4 | 0.00 | 0.00 | 0.00 | 94 | 1008.8 |
| 20260509072009 | 8 | 153 | 1.6 | 6.4 | 0.00 | 0.00 | 0.00 | 94 | 1008.8 |
| 20260509071528 | 8 | 163 | 1.6 | 12.9 | 0.00 | 0.00 | 0.00 | 94 | 1008.8 |
| 20260509071008 | 8 | 149 | 4.8 | 12.9 | 0.00 | 0.00 | 0.00 | 94 | 1008.6 |
| 20260509070513 | 8 | 147 | 4.8 | 11.3 | 0.00 | 0.00 | 0.00 | 94 | 1008.5 |
| 20260509070038 | 8 | 159 | 1.6 | 9.7 | 0.00 | 0.00 | 0.00 | 94 | 1008.5 |
| 20260509065513 | 8 | 159 | 3.2 | 8.0 | 0.00 | 0.00 | 0.00 | 94 | 1008.6 |
| 20260509063051 | 8 | 119 | 0.0 | 0.0 | 0.00 | 0.00 | 0.00 | 94 | 1008.8 |
| 20260509062511 | 8 | 119 | 0.0 | 0.0 | 0.00 | 0.00 | 0.00 | 94 | 1008.9 |
| 20260509062009 | 8 | 119 | 0.0 | 0.0 | 0.00 | 0.00 | 0.00 | 94 | 1008.8 |
| 20260509061542 | 8 | 119 | 0.0 | 0.0 | 0.00 | 0.00 | 0.00 | 94 | 1008.8 |
| 20260509061009 | 8 | 119 | 0.0 | 1.6 | 0.00 | 0.00 | 0.00 | 94 | 1009.0 |
| 20260509060507 | 8 | 119 | 0.0 | 1.6 | 0.00 | 0.00 | 0.00 | 94 | 1009.1 |
| 20260509060037 | 8 | 119 | 0.0 | 3.2 | 0.00 | 0.00 | 0.00 | 94 | 1009.1 |
| 20260509055507 | 8 | 101 | 0.0 | 3.2 | 0.00 | 0.00 | 0.00 | 94 | 1009.1 |
| 20260509055013 | 8 | 120 | 0.0 | 3.2 | 0.00 | 0.00 | 0.00 | 94 | 1009.2 |
| 20260509054524 | 8 | 74 | 0.0 | 3.2 | 0.00 | 0.00 | 0.00 | 94 | 1009.4 |
| 20260509054010 | 8 | 105 | 0.0 | 3.2 | 0.00 | 0.00 | 0.00 | 94 | 1009.4 |
| 20260509053511 | 8 | 115 | 0.0 | 3.2 | 0.00 | 0.00 | 0.00 | 94 | 1009.5 |
| 20260509053026 | 8 | 44 | 0.0 | 1.6 | 0.00 | 0.00 | 0.00 | 94 | 1009.6 |
| 20260509052507 | 8 | 38 | 0.0 | 1.6 | 0.00 | 0.00 | 0.00 | 94 | 1009.7 |
| 20260509052007 | 8 | 38 | 0.0 | 1.6 | 0.00 | 0.00 | 0.00 | 94 | 1009.7 |
| 20260509051525 | 8 | 38 | 0.0 | 0.0 | 0.00 | 0.00 | 0.00 | 94 | 1009.7 |
| 20260509051010 | 8 | 38 | 0.0 | 1.6 | 0.00 | 0.00 | 0.00 | 94 | 1009.7 |
| 20260509050506 | 8 | 38 | 0.0 | 1.6 | 0.00 | 0.00 | 0.00 | 94 | 1009.8 |
| 20260509050026 | 8 | 40 | 0.0 | 3.2 | 0.00 | 0.00 | 0.00 | 94 | 1009.8 |
| 20260509045507 | 8 | 40 | 0.0 | 3.2 | 0.00 | 0.00 | 0.00 | 94 | 1009.8 |
| 20260509045013 | 8 | 46 | 0.0 | 3.2 | 0.00 | 0.00 | 0.00 | 93 | 1009.8 |
| 20260509044526 | 8 | 42 | 0.0 | 3.2 | 0.00 | 0.00 | 0.00 | 94 | 1009.8 |
| 20260509044009 | 8 | 42 | 0.0 | 3.2 | 0.00 | 0.00 | 0.00 | 93 | 1010.0 |
| 20260509043508 | 8 | 26 | 0.0 | 4.8 | 0.00 | 0.00 | 0.00 | 94 | 1010.1 |
| 20260509043025 | 8 | 43 | 0.0 | 4.8 | 0.00 | 0.00 | 0.00 | 93 | 1010.2 |
| 20260509042512 | 8 | 17 | 0.0 | 3.2 | 0.00 | 0.00 | 0.00 | 93 | 1010.2 |
| 20260509042012 | 8 | 22 | 0.0 | 3.2 | 0.00 | 0.00 | 0.00 | 93 | 1010.3 |
| 20260509041526 | 8 | 76 | 0.0 | 1.6 | 0.00 | 0.00 | 0.00 | 93 | 1010.3 |
| 20260509041012 | 8 | 88 | 0.0 | 1.6 | 0.00 | 0.00 | 0.00 | 93 | 1010.4 |
| 20260509040507 | 8 | 88 | 0.0 | 0.0 | 0.00 | 0.00 | 0.00 | 93 | 1010.5 |
| 20260509040025 | 8 | 88 | 0.0 | 1.6 | 0.00 | 0.00 | 0.00 | 93 | 1010.6 |
| 20260509035509 | 9 | 88 | 0.0 | 1.6 | 0.00 | 0.00 | 0.00 | 93 | 1010.7 |
| 20260509035009 | 9 | 74 | 0.0 | 0.0 | 0.00 | 0.00 | 0.00 | 93 | 1010.8 |
| 20260509034525 | 9 | 74 | 0.0 | 1.6 | 0.00 | 0.00 | 0.00 | 93 | 1010.8 |
| 20260509034009 | 9 | 74 | 0.0 | 3.2 | 0.00 | 0.00 | 0.00 | 93 | 1010.9 |
| 20260509033512 | 9 | 74 | 0.0 | 3.2 | 0.00 | 0.00 | 0.00 | 93 | 1010.9 |
| 20260509033025 | 9 | 83 | 0.0 | 1.6 | 0.00 | 0.00 | 0.00 | 93 | 1011.0 |
| 20260509032511 | 9 | 83 | 0.0 | 1.6 | 0.00 | 0.00 | 0.00 | 93 | 1011.1 |
| 20260509032014 | 9 | 83 | 0.0 | 1.6 | 0.00 | 0.00 | 0.00 | 93 | 1011.0 |
| 20260509031528 | 9 | 83 | 0.0 | 1.6 | 0.00 | 0.00 | 0.00 | 93 | 1011.1 |
| 20260509031012 | 9 | 83 | 0.0 | 1.6 | 0.00 | 0.00 | 0.00 | 93 | 1011.1 |
| 20260509030511 | 9 | 85 | 0.0 | 1.6 | 0.00 | 0.00 | 0.00 | 93 | 1011.2 |
| 20260509030026 | 9 | 85 | 0.0 | 3.2 | 0.00 | 0.00 | 0.00 | 93 | 1011.2 |
| 20260509025504 | 9 | 85 | 0.0 | 3.2 | 0.00 | 0.00 | 0.00 | 93 | 1011.3 |
| 20260509024010 | 9 | 5 | 0.0 | 1.6 | 0.00 | 0.00 | 0.00 | 93 | 1011.6 |
| 20260509023506 | 9 | 14 | 0.0 | 1.6 | 0.00 | 0.00 | 0.00 | 93 | 1011.8 |
| 20260509023019 | 9 | 14 | 0.0 | 1.6 | 0.00 | 0.00 | 0.00 | 93 | 1011.8 |
| 20260509022507 | 9 | 15 | 0.0 | 1.6 | 0.00 | 0.00 | 0.00 | 92 | 1011.8 |
| 20260509022009 | 9 | 15 | 0.0 | 1.6 | 0.00 | 0.00 | 0.00 | 92 | 1011.8 |
| 20260509021518 | 9 | 311 | 0.0 | 1.6 | 0.00 | 0.00 | 0.00 | 92 | 1011.8 |
| 20260509021008 | 9 | 311 | 0.0 | 1.6 | 0.00 | 0.00 | 0.00 | 92 | 1011.7 |
| 20260509020508 | 9 | 311 | 0.0 | 1.6 | 0.00 | 0.00 | 0.00 | 92 | 1011.7 |
| 20260509020035 | 9 | 311 | 0.0 | 3.2 | 0.00 | 0.00 | 0.00 | 92 | 1011.7 |
| 20260509015505 | 9 | 311 | 0.0 | 3.2 | 0.00 | 0.00 | 0.00 | 92 | 1011.6 |
| 20260509015006 | 9 | 325 | 0.0 | 3.2 | 0.00 | 0.00 | 0.00 | 92 | 1011.5 |
| 20260509014534 | 9 | 319 | 0.0 | 3.2 | 0.00 | 0.00 | 0.00 | 92 | 1011.4 |
| 20260509013506 | 9 | 332 | 1.6 | 8.0 | 0.00 | 0.00 | 0.00 | 92 | 1011.1 |
| 20260509013032 | 9 | 329 | 1.6 | 4.8 | 0.00 | 0.00 | 0.00 | 91 | 1010.9 |
| 20260509012506 | 9 | 142 | 0.0 | 4.8 | 0.00 | 0.00 | 0.00 | 91 | 1010.6 |
| 20260509012008 | 9 | 138 | 0.0 | 3.2 | 0.00 | 0.00 | 0.00 | 91 | 1010.3 |
| 20260509011520 | 10 | 298 | 0.0 | 3.2 | 0.00 | 0.00 | 0.00 | 91 | 1010.1 |
| 20260509011007 | 10 | 9 | 0.0 | 3.2 | 0.00 | 0.00 | 0.00 | 91 | 1010.3 |
| 20260509010511 | 10 | 302 | 0.0 | 1.6 | 0.00 | 0.00 | 0.00 | 91 | 1010.3 |
| 20260509010022 | 10 | 302 | 0.0 | 1.6 | 0.00 | 0.00 | 0.00 | 91 | 1010.4 |
| 20260509005507 | 10 | 302 | 0.0 | 6.4 | 0.00 | 0.00 | 0.00 | 91 | 1010.2 |
| 20260509005012 | 10 | 36 | 1.6 | 6.4 | 0.00 | 0.00 | 0.00 | 91 | 1010.1 |
| 20260509004520 | 10 | 31 | 0.0 | 3.2 | 0.00 | 0.00 | 0.00 | 90 | 1010.1 |
| 20260509004008 | 10 | 115 | 0.0 | 6.4 | 0.00 | 0.00 | 0.00 | 90 | 1010.2 |
| 20260509002507 | 10 | 316 | 0.0 | 3.2 | 0.00 | 0.00 | 0.00 | 90 | 1010.2 |
| 20260509001008 | 10 | 131 | 0.0 | 1.6 | 0.00 | 0.00 | 0.00 | 89 | 1010.0 |
| 20260509000508 | 10 | 131 | 0.0 | 1.6 | 0.00 | 0.00 | 0.00 | 89 | 1010.0 |